Bedminster, NJ

12:53 PM EST on February 22, 2017 (GMT -0500)
Somerset

Weather History for KSMQ - May, 2012

Change the Weather History Date:

Thursday, May 10, 2012

  Actual Average Record
Temperature  
Mean Temperature 53 °F -  
Max Temperature 64 °F 68 °F 90 °F (1979)
Min Temperature 42 °F 44 °F 26 °F (1947)
Degree Days  
Heating Degree Days 12    
Growing Degree Days 3 (Base 50)    
Moisture  
Dew Point 42 °F    
Average Humidity 63    
Maximum Humidity 97    
Minimum Humidity 31    
Precipitation  
Precipitation 0.12 in - - ()
Sea Level Pressure  
Sea Level Pressure 29.63 in    
Wind  
Wind Speed 5 mph (NW)    
Max Wind Speed 15 mph    
Max Gust Speed 25 mph    
Visibility 9 miles    
Events Rain    
Averages and records for this station are not official NWS values.
T = Trace of Precipitation, MM = Missing Value Source: NWS Daily Summary

Daily Weather History Graph

Daily Weather History Graph

Search for Another Location

Airport or City:

Trip Planner

Search our weather history database for the weather conditions in past years. The results will help you decide how hot, cold, wet, or windy it might be!

Date:

Astronomy

May. 10, 2012 Rise Set
Actual Time 5:46 AM EDT 8:04 PM EDT
Civil Twilight 5:15 AM EDT 8:35 PM EDT
Nautical Twilight 4:38 AM EDT 9:12 PM EDT
Astronomical Twilight 3:56 AM EDT 9:54 PM EDT
Moon 12:01 AM EDT (5/10) 10:07 AM EDT (5/10)
Length of Visible Light 15h 19m
Length of Day
14h 17m
Waning Gibbous, 73% of the Moon is Illuminated
May 10
Waning Gibbous
May 12
Last Quarter
May 20
New
May 28
First Quarter
Jun 4
Full

Hourly Weather History & Observations

Time (EDT) Temp. Dew Point Humidity Pressure Visibility Wind Dir Wind Speed Gust Speed Precip Events Conditions
12:53 AM 59.0 °F 51.1 °F 75% 29.56 in 7.0 mi Variable 3.5 mph - 0.01 in Rain Light Rain
1:53 AM 55.9 °F 53.1 °F 90% 29.55 in 7.0 mi Calm Calm - 0.02 in Rain Light Rain
2:53 AM 55.9 °F 53.1 °F 90% 29.52 in 8.0 mi Calm Calm - 0.04 in Rain Light Rain
3:53 AM 54.0 °F 53.1 °F 97% 29.52 in 6.0 mi Calm Calm - 0.03 in Rain Light Rain
4:53 AM 54.0 °F 53.1 °F 97% 29.51 in 5.0 mi Calm Calm - 0.02 in Rain Light Rain
5:53 AM 54.0 °F 52.0 °F 93% 29.53 in 10.0 mi WNW 3.5 mph - 0.00 in   Clear
6:53 AM 54.0 °F 51.1 °F 90% 29.55 in 10.0 mi Calm Calm - N/A   Partly Cloudy
7:53 AM 57.0 °F 51.1 °F 81% 29.55 in 10.0 mi WNW 6.9 mph - N/A   Clear
8:53 AM 60.1 °F 46.9 °F 62% 29.56 in 10.0 mi NW 11.5 mph 18.4 mph N/A   Clear
9:53 AM 61.0 °F 46.0 °F 58% 29.56 in 10.0 mi Variable 4.6 mph 16.1 mph N/A   Mostly Cloudy
10:53 AM 62.1 °F 42.1 °F 48% 29.58 in 10.0 mi NW 11.5 mph 23.0 mph N/A   Partly Cloudy
11:53 AM 64.0 °F 39.0 °F 40% 29.59 in 10.0 mi NNW 15.0 mph 23.0 mph N/A   Mostly Cloudy
12:53 PM 63.0 °F 39.0 °F 41% 29.60 in 10.0 mi NW 11.5 mph 19.6 mph N/A   Mostly Cloudy
1:53 PM 62.1 °F 39.9 °F 44% 29.61 in 10.0 mi WNW 8.1 mph - 0.00 in Rain Light Rain
2:53 PM 62.1 °F 35.1 °F 37% 29.63 in 10.0 mi WNW 13.8 mph 25.3 mph 0.00 in   Overcast
3:53 PM 61.0 °F 33.1 °F 35% 29.65 in 10.0 mi WNW 10.4 mph 21.9 mph N/A   Overcast
4:53 PM 63.0 °F 32.0 °F 31% 29.66 in 10.0 mi NW 13.8 mph 21.9 mph N/A   Scattered Clouds
5:53 PM 61.0 °F 32.0 °F 34% 29.68 in 10.0 mi NW 13.8 mph - N/A   Mostly Cloudy
6:53 PM 61.0 °F 32.0 °F 34% 29.71 in 10.0 mi NW 12.7 mph 20.7 mph N/A   Mostly Cloudy
7:53 PM 59.0 °F 30.9 °F 35% 29.75 in 10.0 mi NNW 9.2 mph - N/A   Clear
8:53 PM 51.1 °F 35.1 °F 54% 29.78 in 10.0 mi Calm Calm - N/A   Clear
9:53 PM 46.9 °F 39.0 °F 74% 29.81 in 10.0 mi Calm Calm - N/A   Clear
10:53 PM 42.1 °F 39.0 °F 89% 29.82 in 10.0 mi Calm Calm - N/A   Clear
11:53 PM 42.1 °F 39.0 °F 89% 29.84 in 10.0 mi Calm Calm - N/A   Clear